Total_Precipitation_Accumulation
1.22 1.20 1.22 1.25 1.36 1.51 1.66 1.91 2.10 1.99 1.70 1.46 1.45 1.41 1.33 1.40 1.61 1.37 1.27 1.29 1.17 1.09 1.10 1.09 1.10 1.12 1.12 1.08 1.10 1.16 1.24 1.38 1.61 1.80 1.97 2.16 2.28 2.37
1.16 1.10 1.09 1.11 1.16 1.23 1.34 1.51 1.74 1.88 1.75 1.43 1.36 1.29 1.23 1.19 1.43 1.26 1.27 1.28 1.08 0.94 0.89 0.90 0.93 0.98 0.97 0.93 0.94 0.98 1.03 1.11 1.28 1.47 1.68 1.87 2.00 2.15
1.05 1.05 1.04 1.06 1.10 1.08 1.15 1.26 1.41 1.59 1.72 1.56 1.38 1.27 1.23 1.25 1.27 1.17 1.12 1.05 0.97 0.96 0.84 0.79 0.79 0.87 0.87 0.84 0.87 0.89 0.92 1.01 1.15 1.31 1.49 1.69 1.84 1.92
1.01 1.04 1.02 1.02 1.04 1.04 1.09 1.15 1.28 1.46 1.62 1.67 1.50 1.35 1.26 1.22 1.21 1.15 0.96 0.89 0.91 1.02 0.88 0.78 0.73 0.72 0.80 0.77 0.76 0.80 0.87 0.98 1.09 1.19 1.35 1.49 1.59 1.66
0.97 1.02 1.03 1.05 1.02 1.01 1.05 1.11 1.23 1.36 1.54 1.61 1.52 1.42 1.35 1.26 1.30 1.19 1.06 1.13 0.97 0.97 0.90 0.82 0.75 0.74 0.95 0.97 0.75 0.71 0.76 0.89 0.99 1.05 1.15 1.25 1.32 1.36
0.83 0.94 1.00 1.02 1.00 1.05 1.08 1.13 1.21 1.38 1.50 1.55 1.47 1.37 1.33 1.33 1.38 1.37 1.30 1.26 1.14 0.91 0.92 0.87 0.83 0.85 1.16 1.65 1.13 0.81 0.77 0.83 0.92 0.99 1.02 1.02 1.02 1.03
0.73 0.80 0.85 0.86 0.85 0.91 0.93 1.03 1.17 1.33 1.42 1.48 1.44 1.38 1.31 1.41 1.43 1.36 1.31 1.32 1.20 1.06 1.05 0.97 1.09 1.37 1.88 2.49 1.98 1.33 1.08 0.97 0.90 0.93 0.96 0.95 0.90 0.85
0.79 0.79 0.74 0.73 0.70 0.67 0.73 0.84 1.01 1.22 1.39 1.46 1.42 1.40 1.35 1.38 1.48 1.45 1.42 1.45 1.42 1.17 1.11 1.11 1.32 2.05 2.69 2.99 2.53 1.70 1.35 1.11 0.98 1.01 1.04 1.00 0.87 0.77
0.84 0.81 0.70 0.66 0.75 0.75 0.74 0.77 0.89 1.03 1.25 1.47 1.52 1.41 1.38 1.42 1.55 1.60 1.53 1.52 1.49 1.28 1.30 1.34 1.56 2.36 2.61 2.74 2.54 1.78 1.47 1.29 1.19 1.24 1.22 1.03 0.85 0.75
0.67 0.73 0.82 0.84 0.76 0.76 0.74 0.85 0.95 1.06 1.14 1.27 1.45 1.37 1.31 1.38 1.49 1.53 1.48 1.43 1.36 1.26 1.30 1.47 1.68 2.20 2.20 2.31 2.35 1.84 1.53 1.40 1.33 1.32 1.26 1.04 0.85 0.74
0.51 0.55 0.61 0.64 0.65 0.72 0.82 0.97 1.02 1.13 1.15 1.31 1.33 1.27 1.27 1.30 1.25 1.29 1.50 1.61 1.50 1.25 1.17 1.35 1.57 1.87 1.91 2.00 1.95 1.78 1.60 1.49 1.38 1.31 1.20 0.96 0.82 0.76
0.53 0.60 0.59 0.51 0.55 0.68 0.86 1.05 1.19 1.22 1.31 1.49 1.47 1.44 1.35 1.30 1.20 1.22 1.51 1.70 1.65 1.40 1.15 1.21 1.38 1.55 1.77 1.76 1.62 1.53 1.59 1.63 1.53 1.46 1.28 0.98 0.73 0.67
0.57 0.66 0.67 0.58 0.52 0.59 0.78 0.97 1.13 1.17 1.39 1.64 1.53 1.38 1.33 1.29 1.26 1.25 1.37 1.46 1.43 1.34 1.09 1.18 1.38 1.48 1.59 1.63 1.56 1.54 1.49 1.54 1.56 1.62 1.51 1.19 0.84 0.62
0.66 0.65 0.65 0.62 0.59 0.65 0.79 0.95 1.08 1.25 1.45 1.56 1.35 1.19 1.10 1.08 1.12 1.08 1.05 1.06 1.11 1.09 1.01 1.11 1.38 1.56 1.57 1.46 1.52 1.52 1.50 1.52 1.56 1.62 1.63 1.44 1.14 0.91
0.59 0.63 0.60 0.58 0.67 0.88 0.99 1.08 1.23 1.44 1.49 1.35 1.20 1.08 0.96 0.95 0.91 0.90 0.89 0.94 0.94 0.82 0.75 0.83 1.09 1.33 1.45 1.43 1.47 1.44 1.51 1.69 1.71 1.70 1.66 1.51 1.31 1.10
0.53 0.66 0.71 0.73 0.90 1.10 1.24 1.32 1.42 1.47 1.33 1.20 1.11 0.98 0.84 0.87 0.86 0.82 0.90 0.94 0.97 0.91 0.80 0.79 0.92 1.13 1.26 1.26 1.40 1.48 1.51 1.87 1.97 1.80 1.75 1.70 1.47 1.24
0.47 0.68 0.83 0.87 1.00 1.15 1.28 1.35 1.39 1.39 1.31 1.19 1.10 0.99 0.90 0.88 0.84 0.77 0.82 0.83 0.87 0.91 0.90 0.88 0.93 0.99 1.06 1.13 1.31 1.44 1.56 1.80 1.92 1.74 1.63 1.72 1.61 1.36
0.55 0.83 0.92 0.91 0.97 1.06 1.17 1.27 1.26 1.23 1.17 1.16 1.14 1.10 1.00 0.87 0.84 0.79 0.77 0.81 0.88 0.86 0.83 0.82 0.80 0.82 0.90 0.99 1.21 1.36 1.39 1.56 1.63 1.51 1.34 1.39 1.53 1.37
0.61 0.82 0.92 0.97 1.01 1.05 1.07 1.10 1.15 1.16 1.10 1.07 1.06 1.01 0.91 0.83 0.79 0.80 0.78 0.80 0.81 0.76 0.68 0.60 0.60 0.65 0.75 1.04 1.23 1.32 1.32 1.30 1.28 1.29 1.20 1.11 1.23 1.25
0.60 0.77 0.88 0.95 1.01 1.04 1.03 0.99 1.03 1.05 0.99 0.92 0.91 0.89 0.84 0.80 0.79 0.78 0.76 0.71 0.68 0.63 0.60 0.53 0.52 0.58 0.70 0.92 1.28 1.45 1.25 1.05 0.97 1.05 1.06 1.03 1.15 1.19
0.54 0.65 0.76 0.85 0.86 0.87 0.90 0.92 0.95 0.97 0.91 0.87 0.87 0.88 0.85 0.79 0.72 0.64 0.58 0.49 0.51 0.55 0.57 0.60 0.59 0.52 0.52 0.65 0.92 1.18 1.21 1.07 0.89 0.85 0.87 0.93 0.98 0.91
0.51 0.61 0.69 0.71 0.71 0.67 0.68 0.72 0.77 0.78 0.79 0.81 0.81 0.78 0.73 0.67 0.59 0.52 0.50 0.50 0.52 0.54 0.54 0.54 0.51 0.48 0.52 0.64 0.81 0.96 1.02 0.89 0.80 0.78 0.77 0.73 0.71 0.77
0.52 0.56 0.59 0.62 0.61 0.59 0.57 0.56 0.59 0.63 0.66 0.69 0.72 0.70 0.63 0.57 0.51 0.45 0.43 0.41 0.42 0.43 0.45 0.47 0.50 0.50 0.52 0.56 0.60 0.69 0.74 0.71 0.62 0.60 0.72 0.75 0.68 0.75